User: anonymous   Login
Location: Lone Wolf Observatory
(41.0360°N, 89.2260°W)
Time: 04:24:08
(UTC-05:00)
Language:

Cosmos 1378 Rocket - Orbit

View from above orbital plane
View from above orbital plane
View from above satellite
View from above satellite

Ground track
Ground track

The orbit data is extracted from the following two-line orbital elements,

1 13272U 82059B   15090.18130467  .00000668  00000-0  76748-4 0  9990
2 13272 082.5133 179.2093 0017161 268.5927 091.3322 14.84309683771871
Epoch (UTC): 31 March 2015 04:21:04
Eccentricity: 0.0017161
inclination: 82.5133°
perigee height: 604 km
apogee height: 628 km
right ascension of ascending node: 179.2093°
argument of perigee: 268.5927°
revolutions per day: 14.84309683
mean anomaly at epoch: 91.3322°
orbit number at epoch: 77187

The dashed part of the orbit path shows where the satellite is in the earth's shadow,  

DLR